HETCH HETCHY (HTH)

Elevation: 3870' · TUOLUMNE R basin · Operator: Hetch Hetchy Water and Power

Provisional data, subject to change.
Query executed Saturday at 19:43:10   clock

Select a sensor type for a plot of data.
Note: Reservoir Flows are daily averages.

Earlier

Date RES ELE    STORAGE    RES CHG    OUTFLOW    INFLOW    PPT INC    RAIN    PPTINC4   
 FEET   AF   AF   CFS   CFS   INCHES   INCHES   INCHES  
05/26/2016 -- 274774 -- 1910 -- 0.03 38.37 0.04
05/27/2016 -- 275850 -- 1842 -- 0.01 38.38 0.01
05/28/2016 -- 278730 -- 1835 -- 0.00 38.38 0.01
05/29/2016 -- 281986 -- 1825 -- 0.00 38.38 0.05
05/30/2016 -- 284894 -- 1819 -- 0.00 38.38 0.00
05/31/2016 -- 289827 -- 1825 -- 0.00 38.38 0.01
06/01/2016 -- 296992 -- 1831 -- 0.00 38.38 0.00
06/02/2016 -- 306082 -- 1818 -- 0.00 38.38 0.00
06/03/2016 -- 313754 -- 1961 -- 0.00 38.38 0.00
06/04/2016 -- 320735 -- 2256 -- 0.00 38.38 0.00
06/05/2016 -- 326817 -- 2689 -- 0.00 38.38 0.00
06/06/2016 -- 332362 -- 2757 -- 0.00 38.38 0.00
06/07/2016 -- 338321 -- 2513 -- 0.00 38.38 0.00
06/08/2016 -- 344710 -- 2288 -- 0.00 38.38 0.00
06/09/2016 -- 350745 -- 2295 -- 0.00 38.38 0.00
06/10/2016 -- 356028 -- 2299 -- 0.00 38.38 0.00
06/11/2016 -- 358390 -- 2662 -- 0.00 38.38 0.00
06/12/2016 -- 359572 -- 2397 -- 0.00 38.38 0.02
06/13/2016 -- 361944 -- 2215 -- 0.21 38.59 0.29
06/14/2016 -- 362142 -- 2623 -- 0.00 38.59 0.00
06/15/2016 -- 362538 -- 2750 -- 0.00 38.59 0.00
06/16/2016 -- 362340 -- 2355 -- 0.00 38.59 0.00
06/17/2016 -- 362142 -- 2079 -- 0.00 38.59 0.00
06/18/2016 -- 362340 -- 2004 -- 0.00 38.59 0.00
06/19/2016 -- 362736 -- 2094 -- 0.00 38.59 0.00
06/20/2016 -- 362736 -- 2532 -- 0.00 38.59 0.00
06/21/2016 -- 363132 -- 2643 -- 0.00 38.59 0.00
06/22/2016 -- 363132 -- 3073 -- 0.00 38.59 0.00
06/23/2016 -- 362538 -- 2963 -- 0.00 38.59 0.00
06/24/2016 -- -- -- -- -- 0.00 38.59 0.00
06/25/2016 -- -- -- -- -- -- -- 0.00

Later | Latest

Warning! This data is preliminary and subject to revision.

Show HTH Map | Plot HTH Data | 1 Month HTH Data | Real-Time HTH Data | HTH Info